Weather History for KVAY - May, 2013

Change the Weather History Date:

Thursday, May 16, 2013

  Actual Average (KWRI) Record (KWRI)
Temperature  
Mean Temperature 68 °F -  
Max Temperature 81 °F 69 °F 86 °F (1998)
Min Temperature 55 °F 48 °F 42 °F (1999)
Cooling Degree Days 2    
Growing Degree Days 18 (Base 50)    
Moisture  
Dew Point 58 °F    
Average Humidity 77    
Maximum Humidity 100    
Minimum Humidity 48    
Precipitation  
Precipitation 0.02 in - - ()
Sea Level Pressure  
Sea Level Pressure 29.78 in    
Wind  
Wind Speed 2 mph (SW)    
Max Wind Speed 9 mph    
Max Gust Speed 17 mph    
Visibility 7 miles    
Events Rain    
Averages and records for this station are not official NWS values.
T = Trace of Precipitation, MM = Missing Value Source: NWS Daily Summary

Daily Weather History Graph

Daily Weather History Graph

Search for Another Location

Airport or City:

Trip Planner

Search our weather history database for the weather conditions in past years. The results will help you decide how hot, cold, wet, or windy it might be!

Date:

Astronomy

May. 16, 2013 Rise Set
Actual Time 5:43 AM EDT 8:08 PM EDT
Civil Twilight 5:12 AM EDT 8:39 PM EDT
Nautical Twilight 4:34 AM EDT 9:17 PM EDT
Astronomical Twilight 3:52 AM EDT 10:00 PM EDT
Moon 11:13 AM EDT (5/16) 12:28 AM EDT (5/16)
Length of Visible Light 15h 27m
Length of Day
14h 25m
Waxing Crescent, 35% of the Moon is Illuminated
May 16
Waxing Crescent
May 18
First Quarter
May 25
Full
May 31
Last Quarter
Jun 8
New

Hourly Weather History & Observations

Time (EDT) Temp. Heat Index Dew Point Humidity Pressure Visibility Wind Dir Wind Speed Gust Speed Precip Events Conditions
12:54 AM 64.0 °F - 57.9 °F 80% 29.73 in 10.0 mi Calm Calm - N/A   Clear
1:54 AM 61.0 °F - 57.0 °F 87% 29.73 in 10.0 mi Calm Calm - N/A   Clear
2:54 AM 57.9 °F - 55.9 °F 93% 29.73 in 6.0 mi Calm Calm - N/A   Clear
3:54 AM 57.9 °F - 55.9 °F 93% 29.73 in 6.0 mi Calm Calm - N/A   Clear
4:54 AM 57.0 °F - 55.0 °F 93% 29.73 in 3.0 mi Calm Calm - N/A   Clear
5:35 AM 55.4 °F - 55.4 °F 100% 29.74 in 2.5 mi Calm Calm - N/A   Clear
5:54 AM 55.9 °F - 55.0 °F 97% 29.75 in 3.0 mi Calm Calm - N/A   Clear
6:13 AM 55.4 °F - 55.4 °F 100% 29.76 in 2.5 mi Calm Calm - N/A   Clear
6:24 AM 55.4 °F - 55.4 °F 100% 29.77 in 4.0 mi Calm Calm - N/A   Clear
6:54 AM 59.0 °F - 57.0 °F 93% 29.78 in 5.0 mi Calm Calm - N/A   Mist
7:54 AM 63.0 °F - 59.0 °F 87% 29.80 in 7.0 mi Calm Calm - 0.00 in   Scattered Clouds
8:54 AM 64.9 °F - 60.1 °F 84% 29.84 in 2.0 mi NNW 3.5 mph - 0.02 in Rain Heavy Rain
9:54 AM 64.9 °F - 60.1 °F 84% 29.83 in 2.5 mi Calm Calm - N/A Rain Heavy Rain
10:28 AM 66.2 °F - 60.8 °F 83% 29.82 in 5.0 mi Calm Calm - N/A Rain Light Rain
10:54 AM 68.0 °F - 59.0 °F 73% 29.82 in 10.0 mi SSE 3.5 mph - N/A   Unknown
11:54 AM 70.0 °F - 55.0 °F 59% 29.82 in 10.0 mi South 4.6 mph - N/A   Partly Cloudy
12:54 PM 73.9 °F - 59.0 °F 59% 29.80 in 10.0 mi Variable 3.5 mph - N/A   Scattered Clouds
1:54 PM 75.9 °F - 57.9 °F 54% 29.80 in 10.0 mi SW 9.2 mph 17.3 mph N/A   Mostly Cloudy
3:54 PM 79.0 °F - 61.0 °F 54% 29.77 in 10.0 mi WSW 9.2 mph - N/A   Scattered Clouds
4:54 PM 80.1 °F 80.7 °F 59.0 °F 48% 29.76 in 10.0 mi SW 8.1 mph - N/A   Partly Cloudy
6:54 PM 79.0 °F - 60.1 °F 52% 29.77 in 10.0 mi SW 6.9 mph - N/A   Scattered Clouds
7:54 PM 75.9 °F - 61.0 °F 60% 29.78 in 10.0 mi SW 3.5 mph - N/A   Clear
8:54 PM 73.9 °F - 60.1 °F 62% 29.80 in 10.0 mi SW 4.6 mph - N/A   Clear
9:54 PM 69.1 °F - 60.1 °F 73% 29.82 in 10.0 mi SW 3.5 mph - N/A   Clear
10:54 PM 70.0 °F - 59.0 °F 68% 29.83 in 10.0 mi SW 4.6 mph - N/A   Clear
11:54 PM 70.0 °F - 59.0 °F 68% 29.85 in 10.0 mi West 4.6 mph - N/A   Unknown